Time,TemperatureF,DewpointF,PressureIn,WindDirection,WindDirectionDegrees,WindSpeedMPH,WindSpeedGustMPH,Humidity,HourlyPrecipIn,Conditions,Clouds,dailyrainin,SoftwareType,DateUTC
2013-01-15 11:08:00,80.2,48.2,30.06,SE,144,5.4,6.3,33,0.00,,,0.12,VWS V14.01,2013-01-15 16:08:00,
2013-01-15 11:13:00,75.6,58.8,30.09,SSE,154,0.0,0.0,56,0.00,,,0.12,VWS V14.01,2013-01-15 16:13:00,
2013-01-15 11:14:00,75.6,59.7,30.09,SSE,154,0.0,0.0,58,0.00,,,0.12,VWS V14.01,2013-01-15 16:14:00,
2013-01-15 11:15:00,75.6,58.8,30.09,SSE,154,0.0,0.0,56,0.00,,,0.12,VWS V14.01,2013-01-15 16:15:00,
2013-01-15 11:16:00,75.6,58.8,30.09,SSE,154,0.0,0.0,56,0.00,,,0.12,VWS V14.01,2013-01-15 16:16:00,
2013-01-15 11:17:00,75.6,58.8,30.09,SSE,154,0.0,0.0,56,0.00,,,0.12,VWS V14.01,2013-01-15 16:17:00,
2013-01-15 11:18:00,75.6,58.8,30.09,SSE,154,0.0,0.0,56,0.00,,,0.12,VWS V14.01,2013-01-15 16:18:00,
2013-01-15 11:19:00,75.6,58.8,30.09,SSE,154,0.0,0.0,56,0.00,,,0.12,VWS V14.01,2013-01-15 16:19:00,
2013-01-15 11:20:00,75.6,58.8,30.09,SSE,154,0.0,0.0,56,0.00,,,0.12,VWS V14.01,2013-01-15 16:20:00,
2013-01-15 11:21:00,75.6,58.8,30.09,SSE,153,0.0,0.0,56,0.00,,,0.12,VWS V14.01,2013-01-15 16:21:00,
2013-01-15 11:22:00,75.6,59.7,30.09,SSE,153,0.0,0.0,58,0.00,,,0.12,VWS V14.01,2013-01-15 16:22:00,
2013-01-15 11:23:00,75.6,59.7,30.09,SSE,153,0.0,0.0,58,0.00,,,0.12,VWS V14.01,2013-01-15 16:23:00,
2013-01-15 11:24:00,75.6,58.8,30.09,SSE,154,0.0,0.0,56,0.00,,,0.12,VWS V14.01,2013-01-15 16:24:00,
2013-01-15 11:25:00,75.6,58.8,30.06,South,180,0.0,0.0,56,0.00,,,0.12,VWS V14.01,2013-01-15 16:25:00,
2013-01-15 11:26:00,75.7,58.0,30.06,South,180,0.0,0.0,54,0.00,,,0.12,VWS V14.01,2013-01-15 16:26:00,
2013-01-15 11:27:00,75.9,58.2,30.06,SSE,167,0.0,0.0,54,0.00,,,0.12,VWS V14.01,2013-01-15 16:27:00,
2013-01-15 11:28:00,75.9,58.2,30.06,South,182,0.0,0.0,54,0.00,,,0.12,VWS V14.01,2013-01-15 16:28:00,
2013-01-15 11:29:00,75.9,57.3,30.06,SE,143,4.0,4.0,52,0.00,,,0.12,VWS V14.01,2013-01-15 16:29:00,
2013-01-15 11:30:00,76.1,54.4,30.06,SSE,166,5.8,5.8,47,0.00,,,0.12,VWS V14.01,2013-01-15 16:30:00,
2013-01-15 11:31:00,76.1,54.4,30.06,SSE,162,3.6,5.8,47,0.00,,,0.12,VWS V14.01,2013-01-15 16:31:00,
2013-01-15 11:32:00,76.3,54.6,30.06,SSE,164,3.1,5.8,47,0.00,,,0.12,VWS V14.01,2013-01-15 16:32:00,
2013-01-15 11:33:00,76.5,54.8,30.06,SSE,157,2.7,3.6,47,0.00,,,0.12,VWS V14.01,2013-01-15 16:33:00,
2013-01-15 11:34:00,76.5,54.8,30.06,SSE,157,3.1,3.6,47,0.00,,,0.12,VWS V14.01,2013-01-15 16:34:00,
2013-01-15 11:35:00,76.6,54.9,30.06,SSE,159,0.0,4.5,47,0.00,,,0.12,VWS V14.01,2013-01-15 16:35:00,
2013-01-15 11:36:00,76.6,53.8,30.06,SSE,159,3.1,4.5,45,0.00,,,0.12,VWS V14.01,2013-01-15 16:36:00,
2013-01-15 11:37:00,76.6,53.8,30.06,SSE,159,3.1,4.0,45,0.00,,,0.12,VWS V14.01,2013-01-15 16:37:00,
2013-01-15 11:38:00,76.6,53.8,30.06,SSE,159,0.0,3.6,45,0.00,,,0.12,VWS V14.01,2013-01-15 16:38:00,
2013-01-15 11:39:00,76.6,54.9,30.06,SSE,159,0.0,3.1,47,0.00,,,0.12,VWS V14.01,2013-01-15 16:39:00,
2013-01-15 11:40:00,76.6,54.9,30.06,SSE,159,3.6,3.6,47,0.00,,,0.12,VWS V14.01,2013-01-15 16:40:00,
2013-01-15 11:41:00,76.6,54.9,30.06,SSE,166,4.0,4.0,47,0.00,,,0.12,VWS V14.01,2013-01-15 16:41:00,
2013-01-15 11:42:00,76.6,54.9,30.06,SSE,151,0.0,4.0,47,0.00,,,0.12,VWS V14.01,2013-01-15 16:42:00,
2013-01-15 11:43:00,76.6,54.9,30.06,SE,139,0.0,3.6,47,0.00,,,0.12,VWS V14.01,2013-01-15 16:43:00,
2013-01-15 11:44:00,76.6,54.9,30.06,SE,140,0.0,0.0,47,0.00,,,0.12,VWS V14.01,2013-01-15 16:44:00,
2013-01-15 11:45:00,76.6,54.9,30.06,SSE,152,0.0,0.0,47,0.00,,,0.12,VWS V14.01,2013-01-15 16:45:00,
2013-01-15 11:46:00,76.6,54.9,30.06,SSE,153,0.0,0.0,47,0.00,,,0.12,VWS V14.01,2013-01-15 16:46:00,
2013-01-15 11:47:00,76.6,54.9,30.06,SSE,161,5.4,5.4,47,0.00,,,0.12,VWS V14.01,2013-01-15 16:47:00,
2013-01-15 11:48:00,76.8,55.1,30.06,SE,146,3.1,5.4,47,0.00,,,0.12,VWS V14.01,2013-01-15 16:48:00,
2013-01-15 11:49:00,76.8,55.1,30.06,SE,146,0.0,5.4,47,0.00,,,0.12,VWS V14.01,2013-01-15 16:49:00,
2013-01-15 11:50:00,76.6,53.8,30.06,SSE,147,0.0,4.0,45,0.00,,,0.12,VWS V14.01,2013-01-15 16:50:00,
2013-01-15 11:51:00,76.6,53.8,30.06,SSE,147,0.0,0.0,45,0.00,,,0.12,VWS V14.01,2013-01-15 16:51:00,
2013-01-15 11:52:00,76.6,53.8,30.06,SSE,148,0.0,0.0,45,0.00,,,0.12,VWS V14.01,2013-01-15 16:52:00,
2013-01-15 11:53:00,76.6,53.8,30.06,SSE,154,3.6,3.6,45,0.00,,,0.12,VWS V14.01,2013-01-15 16:53:00,
2013-01-15 11:54:00,76.6,53.8,30.06,SE,139,3.1,4.0,45,0.00,,,0.12,VWS V14.01,2013-01-15 16:54:00,
2013-01-15 11:55:00,76.6,52.7,30.06,SSE,154,4.0,4.9,43,0.00,,,0.12,VWS V14.01,2013-01-15 16:55:00,
2013-01-15 11:56:00,76.6,53.8,30.06,SSE,152,3.6,4.9,45,0.00,,,0.12,VWS V14.01,2013-01-15 16:56:00,
2013-01-15 11:57:00,76.6,53.8,30.06,SSE,152,2.2,4.0,45,0.00,,,0.12,VWS V14.01,2013-01-15 16:57:00,
2013-01-15 11:58:00,76.6,53.8,30.06,SSE,152,2.7,3.6,45,0.00,,,0.12,VWS V14.01,2013-01-15 16:58:00,
2013-01-15 11:59:00,76.5,53.7,30.06,SSE,152,2.2,3.1,45,0.00,,,0.12,VWS V14.01,2013-01-15 16:59:00,
2013-01-15 12:00:00,76.5,53.7,30.06,SE,142,4.0,4.0,45,0.00,,,0.12,VWS V14.01,2013-01-15 17:00:00,
2013-01-15 12:01:00,76.5,52.6,30.06,SE,128,4.0,4.0,43,0.00,,,0.12,VWS V14.01,2013-01-15 17:01:00,
2013-01-15 12:02:00,76.5,52.6,30.06,ESE,119,3.1,4.0,43,0.00,,,0.12,VWS V14.01,2013-01-15 17:02:00,
2013-01-15 12:03:00,76.5,52.6,30.06,SE,125,0.0,4.0,43,0.00,,,0.12,VWS V14.01,2013-01-15 17:03:00,
2013-01-15 12:04:00,76.5,52.6,30.06,SE,144,0.0,3.1,43,0.00,,,0.12,VWS V14.01,2013-01-15 17:04:00,
2013-01-15 12:05:00,76.5,52.6,30.06,SE,144,0.0,0.0,43,0.00,,,0.12,VWS V14.01,2013-01-15 17:05:00,
2013-01-15 12:06:00,76.5,52.6,30.06,SSE,154,0.0,0.0,43,0.00,,,0.12,VWS V14.01,2013-01-15 17:06:00,
2013-01-15 12:07:00,76.6,53.8,30.06,SE,145,2.7,2.7,45,0.00,,,0.12,VWS V14.01,2013-01-15 17:07:00,
2013-01-15 12:08:00,76.6,53.8,30.06,SE,145,3.6,3.6,45,0.00,,,0.12,VWS V14.01,2013-01-15 17:08:00,
2013-01-15 12:09:00,76.8,54.0,30.06,SE,131,3.1,3.6,45,0.00,,,0.12,VWS V14.01,2013-01-15 17:09:00,
2013-01-15 12:10:00,77.0,54.2,30.06,SE,124,0.0,3.6,45,0.00,,,0.12,VWS V14.01,2013-01-15 17:10:00,
2013-01-15 12:11:00,77.0,53.1,30.06,SE,124,0.0,3.1,43,0.00,,,0.12,VWS V14.01,2013-01-15 17:11:00,
2013-01-15 12:12:00,77.2,53.2,30.06,SSE,147,4.0,5.8,43,0.00,,,0.12,VWS V14.01,2013-01-15 17:12:00,
2013-01-15 13:03:00,77.2,53.2,30.06,SSE,147,4.0,5.8,43,0.00,,,0.12,VWS V14.01,2013-01-15 18:03:00,
2013-01-15 13:08:00,79.2,51.4,30.03,South,169,0.0,0.0,38,0.00,,,0.12,VWS V14.01,2013-01-15 18:08:00,
2013-01-15 13:13:00,79.3,51.5,30.03,SE,143,2.2,4.0,38,0.00,,,0.12,VWS V14.01,2013-01-15 18:13:00,
2013-01-15 13:18:00,79.5,51.7,30.03,SE,138,0.0,3.6,38,0.00,,,0.12,VWS V14.01,2013-01-15 18:18:00,
2013-01-15 13:23:00,79.9,52.0,30.03,WSW,253,4.0,5.8,38,0.00,,,0.12,VWS V14.01,2013-01-15 18:23:00,
2013-01-15 13:28:00,80.1,52.2,30.03,SE,136,0.0,0.0,38,0.00,,,0.12,VWS V14.01,2013-01-15 18:28:00,
2013-01-15 13:33:00,80.1,52.2,30.03,SE,124,2.7,3.6,38,0.00,,,0.12,VWS V14.01,2013-01-15 18:33:00,
2013-01-15 13:38:00,79.9,52.0,30.03,ESE,104,0.0,0.0,38,0.00,,,0.12,VWS V14.01,2013-01-15 18:38:00,
2013-01-15 13:43:00,79.9,52.0,30.00,SSE,150,0.0,2.2,38,0.00,,,0.12,VWS V14.01,2013-01-15 18:43:00,
2013-01-15 13:48:00,79.9,52.0,30.00,SE,141,0.0,0.0,38,0.00,,,0.12,VWS V14.01,2013-01-15 18:48:00,
2013-01-15 13:53:00,80.4,52.5,30.00,SW,218,3.6,5.8,38,0.00,,,0.12,VWS V14.01,2013-01-15 18:53:00,
2013-01-15 13:58:00,81.0,51.7,30.00,South,169,0.0,5.4,36,0.00,,,0.12,VWS V14.01,2013-01-15 18:58:00,
2013-01-15 14:03:00,81.0,51.7,30.00,South,170,6.3,6.3,36,0.00,,,0.12,VWS V14.01,2013-01-15 19:03:00,
2013-01-15 14:09:00,80.8,48.7,30.00,SSE,165,3.1,6.3,33,0.00,,,0.12,VWS V14.01,2013-01-15 19:09:00,
2013-01-15 14:14:00,81.0,51.7,30.00,West,272,0.0,0.0,36,0.00,,,0.12,VWS V14.01,2013-01-15 19:14:00,
2013-01-15 14:19:00,81.5,52.2,30.00,South,184,0.0,3.6,36,0.00,,,0.12,VWS V14.01,2013-01-15 19:19:00,
2013-01-15 14:24:00,81.7,49.5,30.00,South,180,2.7,5.4,33,0.00,,,0.12,VWS V14.01,2013-01-15 19:24:00,
2013-01-15 14:29:00,81.1,49.0,30.00,SSE,165,2.2,4.9,33,0.00,,,0.12,VWS V14.01,2013-01-15 19:29:00,
2013-01-15 14:34:00,80.6,48.5,30.00,South,173,0.0,0.0,33,0.00,,,0.12,VWS V14.01,2013-01-15 19:34:00,
2013-01-15 14:39:00,80.6,51.4,30.00,SW,218,0.0,0.0,36,0.00,,,0.12,VWS V14.01,2013-01-15 19:39:00,
2013-01-15 14:44:00,80.8,51.5,30.00,SSE,163,0.0,0.0,36,0.00,,,0.12,VWS V14.01,2013-01-15 19:44:00,
2013-01-15 14:49:00,81.1,49.0,30.00,WNW,284,0.0,4.0,33,0.00,,,0.12,VWS V14.01,2013-01-15 19:49:00,
2013-01-15 14:54:00,81.3,49.2,30.00,SSE,159,0.0,4.0,33,0.00,,,0.12,VWS V14.01,2013-01-15 19:54:00,
2013-01-15 14:59:00,81.3,49.2,30.00,SSE,166,2.2,4.0,33,0.00,,,0.12,VWS V14.01,2013-01-15 19:59:00,